Starlink 5335

operational
NORAD ID: 56508 Int'l Des: 2023-065 Owner: SPXS Country: US Constellation: starlink
LEOCIRCULAR

About Starlink 5335

Description loading...

Live Position

Loading 3D Globe...

Upcoming Passes

Altitude History

Altitude vs Time

uPlot chart will show altitude changes over time

Two-Line Element Set

1 56508U 23065F 26037.32483265 .00000672 00000-0 64817-4 0 9996
2 56508 43.0043 21.0272 0000740 265.5755 94.5003 15.02532603151904
Epoch: Feb 6, 2026 • Age: 19 hours

Current Status

Altitude 558.3 km
Velocity 7.58 km/s
Sub-Earth Point 9.08°N, 155.77°W
Launch Date May 14, 2023
Age 2.7 years
Type internet

Technical Details

Classification Payload
Mass 305.00 kg
Dry Mass 290.00 kg
Total Mass 305.00 kg
Length 0.20 m
Diameter 2.80 m
Span 9.00 m
Shape Box + pan
Manufacturer SPXS
Bus Type Starlink
Phase Status In Orbit
Owner/State SPXS/US

Large Constellations

Loading constellations...